Airfield :
LOGIN :

Register | Disclaimer

   EN    FR    IT 

 










Legend :    VFR   Marginal VFR   IFR   Intensive IFR   Very Intensive IFR
Visi :
Ceiling :
>= 8 km
>= 3000ft
5 to 8 km
1000 to 3000 ft
1500m to 5 km
500 to 1000 ft
800 to 1500m
200 to 500 ft
< 800m
< 200 ft
Symbols :   Thunderstorms  Fog  Heavy snow  Heavy precipitations  Wind > 20 kt
SIGMETs :     Misc.  Thunderstorms  Icing  Turbulence  Mountain Waves  Volcanic Ashes







- Airport Elevation : 699 ft
- IATA code : PAD


EDLP - Paderborn Lippstadt

CURRENT METAR :
  • 151050Z 22004KT 160V270 CAVOK 24/07 Q1014

EXPIRED METARs :
  • 151020Z 20006KT 160V240 CAVOK 24/07 Q1014
  • 150950Z VRB03KT CAVOK 22/07 Q1014
  • 150920Z 20003KT 150V250 CAVOK 22/06 Q1014
  • 150850Z 17003KT 130V220 CAVOK 21/06 Q1014
  • 150820Z 15005KT 130V190 CAVOK 20/06 Q1013

TAF TAF EDLP
Valid from the 15 at 06:00 until the 16 at 06:00 UTC


150500Z 1506/1606 16006KT CAVOK
TEMPO 1510/1513 22005KT
No reported NOTAMs for that airfield.



MET'MAP, your aeronautical weather chart ! - Copyright ORBIFLY December 2007 - Disclaimer

ORBIFLY MET'MAP TEAM :

Programming & Development : Alexandra Zaïnal
Concept & Development : Baudouin d'Aumeries
Co-Development & Prog : Marc-Olivier Méhu
Technical & hardware support : Manuel Goepfert

Contact : metmap@orbifly.com




SOURCES & CREDITS :

   NOAA